Back to catalog

STARLINK-31913

AliveCommunicationsVLEO
NORAD 59667·PAYLOAD·🇺🇸 United States

Launched May 6, 2024 from Cape Canaveral Space Force Station

Loading…

Next Passes (next 24 hours)

TLE

FreshSource: CelesTrak SupGP

Epoch: Sep 14, 2026, 14:46 UTC

1 59667C 24084P   26257.61576389 -.00070323  00000+0 -25460-2 0  2570
2 59667  43.0008  51.1845 0001640 267.5611 292.7231 15.27626921    11

Track STARLINK-31913 in real time with AllMySat

Download on the App Store